Wind_Speed
17 16 16 17 20 22 23 24 25 27 28 28 28 26 26 25 26 28 28 27 25 23 23 23 23 21 21 23 24 26 24 20 18 19 20 21 22 21 20 16 13 10 6 4 5 4 4 5 6 8 9 10 11 9 7 6 5 7 9 9 7 7 9 10 11 12 13 14 14 13 12 11 12 12 13 14 15 17 18 18 18 18 17 16 16 15
16 15 15 18 21 22 23 24 26 28 27 27 26 25 25 25 26 26 25 23 23 22 22 23 23 21 21 22 22 21 18 15 15 17 17 19 20 20 18 15 11 9 6 3 3 3 4 6 7 8 10 11 11 11 10 9 8 8 8 8 7 9 11 11 12 13 14 15 14 13 12 12 11 12 12 12 13 14 15 16 17 17 17 17 17 16
17 17 18 20 20 21 22 24 26 26 26 25 24 23 24 24 25 25 23 22 23 22 22 23 23 21 21 20 19 18 16 15 15 15 17 18 19 18 16 13 9 7 6 4 3 4 6 8 9 10 11 12 12 13 12 11 10 9 9 9 9 11 12 12 13 14 16 16 16 14 13 13 12 13 12 12 12 12 13 14 15 16 17 17 17 17
20 20 21 21 20 19 20 22 24 24 24 23 23 23 24 25 25 25 25 24 24 22 21 24 24 22 21 19 18 18 18 17 16 16 17 18 18 16 14 10 6 7 7 5 4 5 8 9 11 12 11 11 12 13 13 13 12 12 11 11 11 11 12 12 13 15 16 17 17 16 15 14 13 13 12 11 11 11 11 12 13 14 16 17 17 17
22 22 21 20 20 19 19 20 21 21 21 21 21 22 24 26 26 26 27 26 25 23 22 24 24 22 21 20 20 20 20 19 16 15 15 14 14 13 11 9 7 9 9 7 5 6 8 10 11 11 10 9 10 12 13 13 14 13 13 12 12 12 12 13 14 15 17 19 19 19 17 15 13 14 13 11 10 10 10 11 13 14 15 16 17 18
22 21 20 20 20 20 19 19 19 20 20 20 20 22 24 26 26 27 28 28 28 25 24 25 24 22 21 21 23 23 23 21 17 14 13 12 13 13 11 10 9 11 12 9 6 6 6 8 10 9 9 9 9 10 12 13 14 14 14 14 13 13 13 13 14 16 18 20 20 20 19 16 14 14 13 11 11 11 10 11 12 14 15 16 17 17
22 21 21 21 21 20 20 20 20 21 21 20 20 22 25 27 27 28 28 29 30 28 27 26 25 24 22 22 23 25 25 22 18 16 14 13 12 13 13 12 12 13 14 11 6 5 5 7 9 8 9 10 10 10 11 12 13 14 14 15 15 14 13 13 15 17 18 19 19 19 19 17 15 14 14 13 12 12 12 11 11 13 15 16 17 18
21 21 21 21 21 20 20 20 21 22 22 22 21 23 26 28 28 29 28 28 29 30 28 26 25 25 24 23 23 23 22 20 17 15 14 13 12 14 15 15 15 16 17 14 9 7 7 9 12 11 10 11 11 11 11 12 13 14 15 16 15 14 13 14 15 16 17 17 17 17 18 17 17 17 16 15 15 16 16 15 12 11 13 16 17 18
22 22 22 22 21 20 20 21 22 23 23 23 23 24 26 28 29 29 29 28 29 30 29 27 27 27 26 25 24 22 20 18 16 15 15 15 15 15 17 17 18 19 20 17 13 12 12 13 15 15 13 12 13 13 13 13 14 15 16 16 15 14 14 15 16 17 16 16 16 16 18 18 19 19 18 18 20 21 20 18 14 11 12 15 17 18
24 24 24 23 22 21 21 23 24 24 23 23 24 25 26 27 29 31 31 30 30 30 29 29 28 28 27 27 24 22 21 20 18 17 17 17 17 18 19 19 20 21 21 20 18 17 18 18 18 18 16 15 15 16 15 14 15 14 14 15 14 14 15 15 16 16 16 17 17 18 19 20 21 21 20 20 21 20 20 19 15 11 12 15 17 18
26 26 25 24 22 22 23 24 25 25 23 23 24 26 27 28 30 32 33 32 31 30 30 30 30 29 28 27 26 25 23 22 21 19 20 21 21 22 23 23 23 24 24 23 23 22 21 21 21 20 18 16 17 17 16 15 15 15 15 15 15 15 16 16 17 18 18 19 20 21 21 22 22 21 20 20 21 19 19 19 18 16 18 19 19 19
27 26 26 25 24 23 24 24 25 25 24 23 24 26 28 29 31 32 34 35 33 32 31 31 31 31 30 29 28 27 26 25 24 23 23 23 23 24 25 25 25 26 27 26 25 25 24 24 23 21 19 18 18 19 18 18 18 17 17 16 17 18 18 19 19 20 21 22 22 23 23 23 23 22 20 21 22 22 21 21 20 21 22 20 18 18
26 27 27 26 25 25 25 25 26 26 25 24 24 26 28 29 31 32 34 36 36 34 33 33 33 33 32 32 31 30 30 29 28 26 26 24 23 22 23 24 25 27 27 27 26 26 26 26 26 23 20 20 21 21 20 20 19 18 18 18 20 20 20 20 21 21 22 23 24 24 24 25 25 24 23 23 24 26 27 25 22 20 18 17 16 16
27 29 30 29 28 27 26 26 26 26 25 24 24 27 28 29 31 32 33 36 37 36 35 35 36 35 35 35 34 32 33 33 32 31 29 27 25 24 23 23 25 28 29 28 29 29 28 28 28 25 22 22 23 22 21 19 18 18 19 21 21 21 20 20 20 21 22 24 24 24 24 25 24 25 25 25 27 30 30 27 22 17 15 14 14 13
27 30 31 30 29 27 26 26 25 25 25 24 25 26 27 29 29 28 30 32 34 36 36 36 37 37 38 38 36 35 34 35 35 34 33 32 30 28 27 27 28 29 30 31 32 31 31 30 29 27 24 25 26 24 21 19 18 19 21 22 21 21 21 21 22 23 23 24 25 24 24 24 24 24 24 23 24 25 23 21 18 14 12 12 12 12
27 29 30 29 28 27 25 25 25 26 25 24 25 25 24 25 26 25 26 28 30 32 34 36 37 37 37 37 37 36 35 35 36 35 35 34 32 30 30 31 31 31 32 34 35 34 34 32 31 30 28 26 26 24 22 20 18 19 21 22 21 21 22 21 21 21 21 21 22 24 25 24 22 20 19 18 18 15 15 15 15 13 13 12 12 12
26 27 29 29 28 27 25 25 26 26 24 24 25 23 21 21 23 23 24 26 28 29 31 33 35 36 36 37 37 37 35 34 35 35 35 33 31 29 29 30 32 32 34 36 37 36 33 32 32 34 33 29 26 23 21 20 18 19 21 22 22 22 22 21 19 20 20 20 20 20 20 19 17 16 15 16 16 14 13 15 15 14 14 13 13 13
27 27 28 29 28 26 25 25 25 25 25 24 24 22 21 21 23 24 24 26 28 28 30 32 32 33 35 35 36 36 36 35 35 35 33 29 27 27 28 29 30 32 32 34 36 36 30 29 33 35 34 32 27 23 21 19 19 20 21 22 22 19 19 21 20 20 20 17 16 16 14 13 13 12 12 13 13 13 14 15 16 15 14 15 15 14
28 27 28 29 27 25 25 25 24 26 27 26 24 23 23 23 23 24 25 26 27 27 28 30 30 31 31 32 33 33 33 33 33 32 30 26 25 26 27 27 29 31 31 31 33 34 25 25 29 29 28 28 25 23 20 19 19 20 21 22 21 17 15 17 18 17 15 13 12 13 12 10 10 10 10 11 12 13 14 15 15 14 15 16 17 16
28 26 25 26 25 24 25 25 25 26 27 26 24 24 25 24 25 25 25 26 27 28 28 29 30 30 29 28 28 27 27 27 27 27 27 25 24 24 24 25 26 30 31 29 31 31 26 25 27 25 21 20 21 21 20 19 20 21 21 22 20 17 16 15 14 13 12 11 11 11 10 10 10 11 12 12 12 13 14 14 14 14 15 17 19 20
27 25 24 23 24 24 24 25 27 28 28 27 24 23 24 25 25 26 26 26 27 27 28 28 28 27 26 24 22 19 19 20 21 22 24 24 23 22 22 23 25 27 28 27 28 30 30 29 28 23 19 18 18 18 19 19 20 20 21 20 19 18 17 16 14 13 11 11 12 11 11 11 11 11 11 11 12 12 13 13 14 14 15 17 18 17
26 25 24 23 24 24 23 24 26 27 28 28 25 24 25 26 26 25 26 26 25 25 24 24 24 23 23 21 18 15 15 16 17 19 21 22 23 22 22 23 24 25 25 24 24 25 24 23 22 19 17 18 18 18 18 19 19 20 20 19 18 17 18 17 16 15 14 15 15 14 13 11 10 8 8 9 10 10 12 13 13 14 15 14 14 14
27 26 25 26 27 27 25 26 26 26 27 28 26 26 27 27 27 26 25 25 24 23 22 22 22 22 22 21 19 16 15 15 16 17 19 20 21 22 22 22 23 23 23 23 22 22 20 19 17 16 18 19 18 18 18 18 18 18 18 19 20 20 20 20 18 17 16 16 16 16 14 12 11 10 10 11 11 10 10 12 13 13 14 14 15 16
30 29 28 28 30 30 28 27 27 27 28 28 28 29 30 29 27 26 25 24 24 24 23 22 22 22 22 22 21 19 17 16 17 17 18 19 19 21 21 21 20 20 21 21 21 20 19 17 15 14 16 19 20 18 17 17 18 19 20 22 24 25 25 24 23 20 18 16 17 17 17 16 15 14 13 13 12 11 11 13 13 14 14 14 15 17
33 33 32 31 32 33 32 30 30 29 29 29 30 30 30 29 27 26 26 26 26 27 25 23 23 23 22 22 22 20 19 18 18 18 19 20 20 21 21 21 21 21 21 21 20 19 18 17 16 15 15 17 18 18 18 18 19 21 23 24 25 26 27 27 25 23 21 20 19 18 18 18 17 16 15 14 13 13 13 13 14 14 15 15 16 17
36 35 35 34 34 34 33 32 31 29 29 29 30 30 30 29 29 28 28 29 29 28 26 24 23 22 22 22 21 21 20 19 19 19 20 20 21 21 22 22 22 21 21 22 22 21 20 19 19 18 17 17 18 18 18 19 19 21 22 23 24 25 26 27 27 26 24 23 21 20 19 19 18 17 17 15 14 13 14 14 15 16 17 17 17 17
39 39 38 37 36 35 35 34 33 31 30 30 31 32 32 32 32 32 32 32 31 30 28 26 25 23 23 23 23 23 22 22 21 21 21 21 21 21 22 22 22 22 23 23 23 23 22 21 21 20 20 20 19 19 20 20 21 22 23 24 25 25 26 26 27 27 27 25 24 22 22 21 21 20 19 18 17 16 16 17 17 18 18 18 17 18
38 37 38 38 37 37 37 37 37 36 35 33 33 34 35 36 36 36 36 35 34 32 30 28 27 25 25 25 25 25 24 24 25 24 24 24 24 24 24 24 24 25 25 24 24 23 21 21 21 22 22 22 22 22 23 23 24 25 26 27 27 28 28 28 28 28 28 28 27 26 26 26 26 26 25 25 25 24 22 20 20 19 19 20 21 22
34 35 37 38 38 38 38 39 40 41 40 38 37 37 37 38 40 40 40 39 37 35 33 31 29 28 27 28 28 28 28 28 28 27 27 27 27 28 27 26 25 25 25 24 24 24 24 24 25 25 25 25 26 26 27 28 28 29 30 30 31 31 32 32 32 32 31 32 32 32 32 31 31 31 31 31 31 30 28 25 23 22 22 23 25 25
31 32 33 34 35 36 38 39 41 43 44 43 43 42 40 40 41 43 44 43 41 38 36 34 32 31 31 31 31 32 31 31 31 30 30 31 31 30 30 29 29 29 29 29 29 29 29 30 30 30 30 31 31 32 32 32 33 33 34 34 34 34 35 36 36 36 36 37 37 37 37 35 34 34 33 34 34 33 31 29 27 25 25 26 27 26
30 29 29 29 30 31 32 34 38 41 44 45 44 44 43 43 42 43 44 43 41 39 37 37 35 34 33 33 34 34 34 33 33 33 34 34 34 33 33 33 33 33 34 34 34 34 34 34 34 35 35 36 36 36 36 36 36 36 37 37 38 38 38 39 39 40 40 40 39 39 39 38 38 37 36 36 36 35 34 32 30 29 29 28 28 27
32 29 28 28 28 29 29 29 32 34 37 40 41 39 39 41 41 39 40 40 39 36 35 36 36 35 35 35 35 35 35 35 35 35 36 36 36 36 35 35 36 36 38 38 38 38 38 38 39 39 40 40 41 41 41 41 41 41 40 40 40 41 41 41 42 42 42 42 42 41 41 40 40 39 38 37 37 37 36 33 31 31 31 31 31 31
31 29 28 27 28 30 31 31 31 31 31 34 35 32 31 33 33 33 34 37 37 36 34 34 35 35 36 36 36 36 36 36 37 37 37 38 38 38 38 39 40 40 41 42 42 42 42 42 42 43 43 43 44 44 45 45 45 45 44 43 42 42 42 43 43 43 43 43 43 43 43 43 42 41 39 38 38 37 36 34 34 35 34 34 33 33
32 31 30 30 30 31 32 33 35 36 35 35 35 34 33 32 32 31 31 33 35 35 35 35 35 36 37 37 38 38 39 39 40 40 40 40 41 41 42 43 43 44 45 45 45 46 46 46 47 47 47 47 48 48 48 48 49 48 47 45 44 44 44 44 45 44 44 43 44 44 44 44 42 41 40 40 40 39 39 39 40 40 38 37 37 35
33 32 32 32 32 31 32 33 35 38 39 39 39 40 39 38 37 36 35 35 35 35 35 35 36 37 38 39 40 41 42 42 43 43 43 43 43 44 45 46 47 48 48 49 49 48 48 47 47 46 45 45 46 46 47 47 47 47 46 45 44 45 45 46 45 44 43 43 43 44 44 43 42 41 42 42 42 42 43 43 43 43 41 40 41 41
35 33 32 32 33 33 34 35 36 36 37 38 39 40 40 40 39 38 37 36 36 35 34 34 35 36 38 39 41 41 42 43 44 45 46 46 47 48 49 49 50 51 51 51 51 51 51 50 50 48 46 46 47 48 48 48 48 48 47 45 43 43 43 42 40 39 39 42 44 44 44 44 44 43 43 43 44 44 44 43 41 40 40 39 40 41
39 39 39 38 38 37 37 38 39 39 39 39 39 39 39 39 38 38 37 37 36 36 35 35 35 36 37 38 40 41 42 43 45 46 48 49 50 51 52 52 53 53 53 54 54 55 56 56 56 56 55 56 56 56 56 56 55 54 52 49 47 46 43 40 37 35 36 38 41 42 42 42 42 41 41 42 42 41 40 38 37 37 37 38 39 40
41 42 42 42 41 41 39 39 40 41 40 39 39 39 38 38 38 38 37 37 37 37 38 37 37 37 38 39 41 42 43 44 46 47 48 50 51 53 54 55 55 56 57 57 58 58 59 60 60 60 60 60 60 60 59 59 58 57 55 52 51 51 49 47 45 44 42 40 40 40 41 39 38 39 40 40 40 40 39 40 41 41 41 42 42 43
41 41 42 42 42 42 40 39 39 40 39 39 38 38 38 38 38 37 37 38 38 38 38 38 38 39 39 40 41 42 44 45 47 48 50 51 52 54 55 56 57 58 58 59 60 60 61 62 62 62 62 62 62 61 60 60 59 58 57 55 54 54 54 53 53 53 50 46 42 39 38 38 39 40 41 40 40 40 40 41 41 41 41 40 41 41
40 40 41 41 42 42 41 41 41 41 41 41 40 39 39 39 39 40 40 40 39 38 39 39 40 41 42 42 43 44 45 46 47 49 50 52 53 54 55 56 57 58 58 59 60 61 61 62 62 63 63 63 63 62 62 61 60 60 59 58 57 56 56 55 54 53 52 51 48 42 38 37 38 38 39 39 39 39 38 37 38 39 38 38 39 39
40 40 41 41 42 42 42 42 42 43 42 42 41 41 41 41 42 42 42 40 40 40 41 42 43 44 45 45 46 46 46 47 48 49 50 51 53 54 55 56 57 58 58 59 60 60 61 61 62 62 63 63 63 63 63 62 62 62 61 60 59 58 57 56 55 54 53 53 54 52 48 44 41 39 39 40 41 40 39 38 38 38 38 39 41 42
44 43 43 42 43 43 43 43 44 44 44 43 43 42 43 43 43 43 42 42 42 43 43 44 45 46 46 47 48 48 48 49 49 50 50 51 52 54 55 56 57 57 58 59 59 60 60 61 61 62 62 63 63 63 63 63 63 62 62 62 61 60 58 57 56 55 54 54 55 57 57 56 53 50 48 47 46 45 45 45 44 42 41 43 46 48
45 45 44 44 44 43 44 44 45 45 45 44 44 44 44 44 44 43 43 43 43 43 44 44 44 45 46 46 47 48 48 49 49 50 50 51 52 53 54 55 56 57 58 59 60 61 61 62 62 63 63 63 64 64 64 64 64 63 63 62 62 61 60 59 58 57 56 56 56 57 59 60 60 59 58 56 55 55 54 53 52 51 49 49 50 50
44 44 44 44 44 43 43 43 44 44 44 43 43 43 43 43 42 42 42 42 42 42 42 42 42 43 44 45 45 46 46 47 47 48 48 49 49 50 51 53 54 55 57 58 59 61 61 62 62 62 63 63 63 64 64 64 64 64 63 62 62 62 62 61 60 59 58 57 57 57 58 59 60 60 60 59 59 60 60 59 59 58 57 57 57 56
41 42 42 42 42 42 41 41 41 41 41 41 41 40 40 39 39 39 39 40 40 41 41 41 42 42 43 44 45 45 45 45 46 46 47 47 48 49 50 52 53 55 56 57 58 59 60 61 61 62 62 62 63 64 64 64 64 64 63 63 63 63 63 63 62 61 61 59 59 59 58 58 59 59 57 54 52 53 55 56 57 57 58 57 56 55
37 38 40 40 40 40 40 39 37 35 34 34 35 35 35 36 36 36 37 37 38 39 40 41 41 42 43 44 45 46 47 47 47 48 49 50 52 53 55 56 56 57 58 58 59 60 61 61 62 63 63 64 65 66 66 67 67 67 66 66 66 66 66 65 64 63 63 62 62 62 62 61 61 60 58 55 53 53 54 55 56 57 58 57 54 51
31 33 34 36 37 38 38 38 38 36 34 33 33 32 31 32 33 35 36 37 39 40 41 42 43 44 45 46 47 48 48 49 50 52 55 57 58 59 59 59 58 58 58 59 59 60 61 62 63 64 64 65 66 67 68 69 69 69 69 69 70 70 70 69 68 67 66 65 65 64 64 64 64 63 62 61 60 61 61 61 60 61 61 60 56 53
27 28 29 30 32 33 34 35 36 37 38 39 39 39 37 36 36 36 37 38 39 40 41 43 44 45 46 48 49 51 53 55 57 59 61 61 61 60 59 58 57 57 57 58 58 59 60 61 61 62 63 63 64 65 66 67 67 68 69 69 70 71 71 71 71 70 70 69 68 67 66 66 66 65 65 64 64 64 64 64 64 63 62 60 57 54
24 25 25 26 28 29 30 31 32 34 35 38 40 42 43 44 45 45 45 46 46 47 47 48 50 51 53 55 56 58 59 60 60 59 58 57 56 55 55 55 55 55 56 57 58 58 59 59 60 61 61 62 63 64 65 65 66 67 68 68 69 70 70 70 69 70 69 68 68 68 67 66 66 65 65 65 65 65 64 64 64 63 62 61 59 57
20 22 23 23 24 25 27 28 29 31 32 34 35 37 40 42 44 46 47 48 49 50 51 52 53 53 54 54 54 54 54 53 53 52 52 52 52 53 53 54 54 55 56 56 57 57 58 59 59 60 60 61 62 63 64 65 66 67 68 69 69 70 70 69 68 68 67 66 66 65 64 64 63 62 61 61 62 63 62 62 62 62 61 60 58 57
17 18 19 20 21 22 24 25 26 27 28 29 30 32 33 35 36 38 39 41 42 43 44 44 45 46 46 47 47 47 47 48 48 49 49 50 51 51 52 52 53 53 54 54 54 55 55 56 57 57 58 59 60 61 62 63 64 65 67 68 69 70 71 70 70 68 67 67 66 65 64 63 62 59 57 57 58 57 56 55 56 57 57 57 56 55
Wind_Direction
235 235 235 235 234 232 231 230 230 232 234 235 234 233 234 235 235 238 242 244 245 242 238 238 235 230 231 235 238 243 246 245 245 247 244 239 235 232 231 233 249 269 287 284 268 280 294 279 261 251 252 258 266 272 270 257 223 211 221 226 230 241 249 252 256 263 267 268 268 267 268 269 270 271 273 278 282 283 282 280 278 276 273 270 266 262
235 230 229 230 230 230 229 228 230 232 234 235 233 231 232 231 231 234 237 238 237 230 225 229 227 222 225 231 236 242 245 240 234 235 234 234 234 231 230 237 255 279 299 290 262 284 298 287 272 253 243 247 258 268 270 262 245 230 229 231 230 238 243 246 253 260 265 265 263 263 263 264 265 266 269 276 282 284 283 283 281 278 276 273 270 267
231 226 225 227 228 230 231 231 233 233 233 233 231 230 229 227 226 228 227 227 228 222 216 222 222 218 222 228 233 236 234 221 211 216 223 226 229 231 234 241 259 289 304 299 290 318 315 290 271 258 247 246 253 262 265 262 255 247 240 235 232 237 242 246 250 255 260 261 260 262 265 267 266 265 267 274 280 285 288 288 286 283 279 276 274 271
230 228 227 226 226 228 230 233 235 234 234 232 230 227 223 222 222 220 216 215 221 220 214 220 221 218 220 224 228 228 223 213 203 209 222 227 230 233 235 241 268 293 293 299 322 340 329 297 271 259 251 249 252 256 257 256 254 251 246 241 239 241 244 246 247 250 254 258 262 266 269 269 265 261 263 270 278 287 293 295 292 288 283 279 275 273
233 232 230 228 226 226 228 233 236 236 235 233 231 226 220 220 219 215 211 211 218 220 214 218 222 221 218 217 221 221 218 214 210 216 227 234 239 240 238 246 273 284 285 300 333 345 332 304 279 264 253 251 252 252 250 249 249 249 248 247 245 244 247 249 248 248 250 255 262 267 267 262 258 258 259 264 271 281 291 296 296 292 287 281 276 272
235 234 233 231 228 227 228 230 233 232 231 230 227 223 220 220 219 217 213 212 219 221 218 221 223 225 222 214 216 220 221 220 219 222 229 234 243 250 253 261 271 277 285 298 323 336 327 311 293 271 254 252 252 250 247 245 246 247 248 248 246 246 249 251 251 249 251 256 261 265 265 256 250 255 259 262 267 272 279 286 292 292 289 284 279 275
236 235 235 234 231 230 229 230 232 231 229 225 221 219 219 220 221 221 217 215 218 221 223 226 225 227 226 218 219 226 228 230 229 226 229 234 245 255 261 268 273 278 285 290 304 317 313 315 303 273 248 245 246 245 244 244 245 245 244 243 242 243 247 251 253 254 256 261 264 267 266 255 243 249 257 261 265 271 275 277 282 288 289 286 282 279
237 236 236 237 236 234 232 231 231 232 230 223 217 216 217 219 222 224 223 219 219 221 223 226 226 226 227 226 229 234 238 241 241 237 239 242 249 258 265 269 272 277 282 283 288 287 286 304 301 277 252 246 246 242 238 238 239 239 238 238 241 245 249 253 257 261 264 266 268 269 267 255 244 245 252 259 270 280 281 276 275 283 290 290 286 281
236 236 236 237 237 236 234 232 232 233 231 226 222 220 220 220 221 224 226 223 222 222 221 222 225 226 228 232 235 241 247 248 248 248 249 251 255 260 264 267 269 273 278 279 279 277 280 292 294 280 259 247 244 239 235 235 236 238 240 242 247 253 256 258 261 264 262 261 263 265 264 259 254 252 256 266 277 283 282 276 274 281 291 295 292 286
236 235 236 235 235 235 234 234 235 234 230 228 227 225 225 224 222 223 225 225 225 224 221 221 224 226 229 233 237 243 249 250 249 250 250 253 259 263 265 265 266 270 274 277 276 275 279 285 290 282 264 248 241 238 237 237 238 241 244 246 250 253 256 257 257 257 252 250 254 259 261 262 260 259 263 272 278 281 280 277 275 281 294 298 292 287
236 236 236 235 232 232 234 235 237 237 233 230 230 230 230 230 228 224 223 226 227 225 225 224 224 226 227 232 239 244 248 249 249 249 251 256 262 268 270 268 267 268 271 274 274 274 276 279 285 282 267 249 238 234 234 236 240 243 244 245 247 249 252 253 254 253 251 252 255 259 262 262 262 262 264 269 275 277 278 277 275 280 292 295 288 283
239 240 238 236 233 232 234 236 239 241 239 235 233 234 233 234 235 230 225 226 226 225 226 227 227 228 227 228 236 243 248 249 248 249 253 260 266 268 268 266 265 265 267 269 269 270 272 275 279 278 264 248 237 232 233 237 241 243 243 245 248 250 251 252 253 255 256 257 259 261 264 266 267 266 266 267 271 274 275 276 275 278 285 287 282 278
238 241 240 238 236 234 235 237 239 242 243 241 237 235 234 234 236 235 229 227 227 226 226 228 230 232 231 230 232 238 244 246 247 248 252 260 268 269 265 262 260 259 261 263 264 265 267 270 273 272 259 246 239 235 235 236 238 240 243 246 249 251 252 256 260 262 263 262 263 265 268 271 271 269 268 268 269 270 273 275 275 275 275 276 277 278
231 235 238 238 236 235 236 238 241 243 244 242 237 232 231 232 234 236 233 230 230 230 230 231 232 235 236 237 236 236 240 243 245 248 251 258 265 264 263 262 258 258 259 260 261 263 265 266 268 265 252 244 244 243 239 237 239 243 246 248 250 253 257 261 264 265 267 267 268 269 271 273 270 268 270 270 270 270 268 268 270 269 267 267 273 278
229 230 234 236 235 235 236 238 241 243 243 240 233 229 228 230 233 235 236 235 235 236 236 237 238 239 240 242 243 242 242 244 248 250 252 259 263 259 257 259 260 260 262 263 264 265 264 264 264 261 250 243 245 245 243 243 244 244 247 250 253 257 259 260 261 264 266 269 270 271 272 272 269 270 273 273 275 271 259 256 265 266 260 259 268 276
233 232 233 233 233 233 234 238 239 240 242 240 236 232 230 231 233 235 237 237 238 239 240 241 243 245 246 247 249 249 248 250 252 254 256 261 263 257 254 255 257 259 260 260 259 259 260 261 260 257 250 244 242 241 242 246 247 247 252 257 259 261 262 262 266 268 268 272 276 278 279 276 271 271 272 272 277 271 251 254 268 268 259 259 265 273
233 232 232 232 233 232 232 234 236 237 240 242 241 238 236 235 233 233 236 238 239 241 243 244 246 249 251 253 255 256 257 257 259 262 264 265 260 254 252 252 253 256 257 255 250 247 250 254 256 256 251 244 238 235 238 244 248 253 260 265 266 266 268 267 269 271 274 282 286 286 286 284 279 277 274 273 277 273 261 264 270 266 262 263 268 272
231 229 230 232 233 236 236 234 234 237 239 240 242 243 242 239 235 233 233 236 239 242 245 247 249 252 254 257 259 261 263 263 265 266 266 263 254 248 247 247 251 254 258 260 249 233 236 250 254 253 247 239 235 236 239 244 249 254 260 264 268 274 274 271 273 276 280 288 289 290 296 295 289 287 280 274 274 271 267 266 268 270 269 268 271 274
232 228 228 229 230 234 239 236 234 237 240 240 242 245 245 243 240 237 235 237 240 243 246 249 252 255 257 260 262 264 265 265 264 262 260 256 249 243 242 243 249 250 253 260 244 226 237 256 247 241 238 234 236 240 242 245 249 253 257 261 267 279 281 275 280 286 287 288 287 290 299 296 290 290 283 275 271 270 268 265 268 274 274 271 272 274
230 226 225 228 228 231 236 236 234 236 242 244 245 246 246 244 242 240 238 238 241 244 247 249 252 254 257 261 263 264 264 262 259 255 253 251 246 242 240 242 247 246 247 249 237 234 256 259 240 239 245 242 242 242 241 245 249 252 255 256 262 276 285 281 283 286 284 280 277 281 288 288 287 287 284 279 273 269 267 265 266 270 273 277 276 274
229 225 222 225 228 230 233 235 235 237 243 247 247 246 246 243 243 242 240 240 241 243 247 249 252 255 257 259 262 263 260 256 253 249 247 247 244 241 240 240 242 244 246 245 242 250 263 257 247 252 257 252 252 249 247 248 248 248 249 250 256 271 283 285 283 279 273 265 261 264 272 281 287 287 285 284 277 271 267 265 263 263 268 277 278 273
229 226 220 220 226 229 230 233 234 235 241 246 245 244 244 242 241 241 241 243 245 246 250 254 256 257 257 257 260 261 257 251 247 245 244 245 245 243 242 241 241 242 243 245 251 258 260 255 254 258 259 259 258 252 248 246 244 244 246 250 256 266 276 281 280 276 269 264 263 265 268 274 280 281 282 283 280 278 274 269 267 264 264 270 275 275
230 226 219 217 223 226 227 230 232 232 236 242 243 241 241 239 239 240 241 245 249 251 253 256 257 257 259 261 265 265 259 250 244 242 243 244 246 245 244 242 241 242 244 248 256 261 260 258 261 264 265 260 252 245 241 239 242 248 253 258 261 265 272 277 279 278 274 271 272 271 270 269 268 266 269 273 274 279 279 272 269 269 265 265 270 275
229 227 221 218 222 224 224 227 230 230 232 237 241 242 240 237 238 240 242 244 249 251 253 255 257 260 262 266 267 265 260 253 246 241 240 241 244 245 246 244 243 244 248 252 258 261 261 264 270 279 276 261 248 241 238 240 249 259 265 268 268 269 271 274 277 278 279 280 280 277 273 271 269 266 266 266 267 272 276 273 270 270 268 266 267 270
230 229 226 223 223 225 225 226 229 231 231 233 238 240 238 236 237 239 242 244 247 250 252 254 258 262 264 265 264 262 260 257 252 248 245 244 244 244 244 245 244 245 249 254 258 261 263 268 274 281 280 267 253 247 246 249 257 265 270 272 273 273 273 273 275 278 281 285 285 282 278 275 273 271 269 268 267 271 275 276 271 268 269 270 270 269
233 233 233 231 230 231 233 233 234 236 235 234 235 236 236 238 241 243 245 247 248 250 252 254 257 260 261 260 260 259 260 259 257 256 254 250 249 249 248 248 248 249 251 255 260 264 267 271 271 269 268 264 259 256 256 257 261 267 271 273 274 275 274 275 276 277 280 284 286 286 284 280 279 279 276 272 271 274 276 275 270 266 268 270 270 271
235 236 238 239 238 239 239 237 236 237 238 237 236 237 240 242 245 247 247 247 247 248 249 251 252 255 256 257 257 257 258 258 258 258 257 254 254 256 258 258 258 258 260 262 266 268 269 268 266 263 260 259 258 258 259 261 264 267 269 271 272 273 273 274 276 276 277 279 282 284 285 285 285 287 283 278 278 281 281 277 273 270 268 268 270 273
234 235 238 241 242 242 241 238 235 234 235 235 234 236 239 242 243 244 245 245 245 245 245 247 250 254 256 256 256 258 259 260 260 260 259 258 259 261 263 264 263 262 264 266 267 267 267 265 264 263 263 262 262 262 263 265 267 268 269 269 269 269 269 270 272 273 274 274 277 280 282 283 285 287 287 284 284 284 283 281 276 272 272 273 274 274
236 236 238 241 243 245 245 243 239 236 234 233 233 234 237 240 241 241 241 241 242 241 240 243 248 252 254 254 255 257 260 263 263 261 260 260 261 263 264 263 262 262 263 263 263 262 263 265 266 267 268 267 266 266 267 268 268 269 269 270 269 269 268 269 271 272 272 272 273 276 278 278 279 280 282 283 283 282 281 280 276 272 271 270 271 272
244 242 242 244 246 247 247 244 240 237 235 234 234 234 234 237 239 238 237 237 237 237 237 239 244 250 252 252 252 254 258 262 264 263 262 262 262 263 262 261 260 260 261 261 261 261 263 265 267 269 269 269 268 268 268 269 269 270 271 272 272 271 271 272 273 274 274 273 273 274 275 275 274 274 276 278 279 278 277 277 275 274 272 270 271 271
255 254 252 253 254 255 252 249 246 241 238 237 237 237 236 238 239 236 234 233 233 234 236 238 243 248 251 253 254 255 258 260 262 263 264 264 265 265 264 263 263 263 263 263 264 265 266 267 268 269 270 269 269 269 269 269 270 270 272 273 274 274 274 274 275 275 275 275 274 274 274 273 273 273 273 273 273 273 273 273 273 275 275 273 271 267
258 259 259 257 257 256 254 254 252 247 241 238 240 241 239 239 240 238 235 235 234 234 236 240 245 249 253 255 256 257 259 260 261 262 263 263 265 265 265 265 264 265 265 266 266 267 268 268 269 269 269 270 270 271 271 272 272 272 272 273 274 275 275 275 275 275 275 275 275 274 273 272 272 272 270 269 268 267 268 270 271 272 272 272 271 268
258 259 259 257 255 253 251 250 250 248 244 242 243 246 245 243 242 241 240 239 239 239 240 243 247 251 254 256 257 258 260 261 261 262 262 263 264 264 264 264 265 266 266 267 268 268 268 268 269 269 270 271 272 273 274 274 274 274 274 275 275 275 275 275 274 274 274 273 273 272 271 271 270 269 266 264 263 263 263 266 269 270 268 268 268 264
258 260 261 259 256 254 251 250 250 248 248 248 250 253 255 254 252 251 249 248 248 248 247 246 247 250 253 256 258 260 262 263 263 263 262 262 263 263 263 264 264 265 266 267 268 270 270 270 270 270 271 271 272 272 272 272 272 272 273 274 274 273 272 272 271 271 270 270 269 269 268 268 267 265 263 262 262 261 262 264 267 267 265 264 262 258
260 261 261 258 255 253 251 250 250 249 250 253 255 257 259 260 261 261 260 259 259 258 256 253 251 251 253 255 257 259 260 262 262 262 262 263 263 263 263 263 264 265 266 267 268 269 270 270 270 270 271 271 270 269 268 268 267 268 270 271 271 271 269 269 269 268 268 268 268 267 266 264 262 261 261 262 264 264 266 268 267 265 263 260 258 257
257 255 254 253 252 252 251 252 254 254 254 256 258 259 260 262 263 264 265 264 263 263 261 258 255 254 253 254 256 257 257 257 257 258 259 261 262 262 263 263 263 264 265 265 265 264 264 264 265 265 265 265 265 266 267 267 267 268 269 268 267 267 267 267 266 266 269 270 269 267 265 263 262 262 262 264 265 267 267 267 266 263 260 258 258 258
255 253 253 255 255 255 255 257 259 259 259 259 260 261 262 262 263 263 263 264 263 263 262 260 257 255 253 253 254 255 255 255 255 255 256 257 258 260 261 262 262 263 263 263 264 264 264 264 264 263 263 263 263 264 265 266 267 268 268 265 263 263 264 263 261 263 269 270 267 265 264 264 264 263 262 263 263 263 263 263 264 263 260 259 259 260
253 255 255 257 258 258 258 259 260 261 261 261 261 261 261 261 261 261 261 261 261 262 262 261 260 258 257 255 255 255 255 255 256 256 256 257 258 258 259 260 261 262 263 264 264 265 266 266 267 267 266 266 265 265 265 265 265 265 265 264 263 262 261 259 259 262 265 264 263 265 265 265 265 264 262 261 260 260 261 263 264 264 263 262 263 264
251 252 254 255 257 259 260 260 261 262 263 262 261 261 260 260 260 261 260 260 261 262 262 262 262 261 260 259 258 257 257 257 257 258 258 258 258 259 260 260 261 262 262 263 264 265 266 267 267 268 269 269 269 268 268 267 267 266 265 265 264 263 262 260 260 261 261 258 259 262 263 264 267 266 263 261 261 261 262 263 263 264 264 264 265 266
249 250 252 254 256 258 260 262 263 263 264 264 263 263 262 262 262 261 261 261 262 263 262 262 262 262 261 260 260 259 258 258 257 257 258 258 259 259 260 260 261 261 262 262 263 263 264 265 266 267 267 268 269 270 270 270 270 270 269 268 267 265 264 263 261 260 258 254 251 251 253 255 260 262 259 257 257 260 261 262 263 264 264 264 264 264
251 253 255 257 259 260 260 261 262 262 263 263 264 263 263 264 263 263 264 264 264 265 265 264 264 263 262 262 261 260 260 259 258 258 258 258 258 259 259 260 260 261 261 262 262 262 263 263 264 265 265 266 267 268 269 269 269 270 270 269 268 267 266 264 262 260 258 254 249 248 247 248 250 252 251 250 251 254 255 257 258 261 264 265 263 261
254 255 256 258 259 259 260 260 260 261 262 262 263 264 264 265 265 265 266 266 265 265 265 264 264 263 263 263 262 261 261 260 260 259 259 259 259 260 260 260 261 261 261 261 262 262 262 262 262 263 263 264 264 264 265 265 266 267 267 268 268 268 266 265 264 261 259 255 252 250 249 249 249 250 250 250 251 253 254 254 255 255 256 257 258 259
255 256 256 256 256 257 258 259 259 261 262 263 263 264 265 266 267 268 267 267 266 265 264 263 263 262 262 262 262 262 262 262 262 263 263 263 263 263 263 263 264 264 264 264 264 264 264 264 264 264 265 265 264 264 264 264 264 264 265 265 266 267 266 266 265 263 261 258 256 253 252 252 252 252 252 253 253 253 254 255 255 255 253 253 255 257
253 254 255 256 255 255 256 257 258 259 260 261 262 263 264 265 265 266 265 265 264 263 263 262 262 261 260 260 260 260 261 262 263 264 264 265 266 267 268 268 268 269 269 269 268 268 268 268 267 267 268 268 268 267 267 266 265 264 264 264 264 264 264 264 264 263 262 260 259 257 256 255 255 255 255 256 256 256 255 255 256 257 256 255 256 259
251 252 253 254 254 254 254 256 257 259 260 261 262 263 264 265 266 266 265 265 266 266 265 265 265 265 265 264 263 262 262 262 263 263 264 266 268 270 270 271 271 272 272 271 270 270 270 270 270 270 270 270 271 270 269 269 268 267 266 265 265 264 263 262 262 262 261 261 259 259 258 257 257 258 258 257 256 256 254 253 253 255 255 256 258 260
251 251 252 252 253 253 253 253 254 255 257 260 261 262 263 263 264 264 265 265 265 266 265 266 265 265 264 263 263 264 265 265 265 267 269 270 272 273 274 274 274 273 272 271 270 269 269 269 269 270 270 270 271 271 271 270 270 269 268 267 267 266 265 263 261 260 260 260 260 259 259 258 258 259 258 256 253 252 251 251 252 253 255 257 259 258
251 251 251 252 253 253 252 252 251 249 248 247 248 250 251 251 251 251 251 252 253 253 254 255 255 255 255 256 257 260 263 265 268 270 273 275 276 276 276 276 275 274 273 272 271 270 269 269 268 268 268 268 268 268 269 269 269 269 269 268 268 268 267 266 265 263 262 261 260 260 260 260 259 259 259 258 256 255 255 255 255 255 256 259 260 257
252 252 252 252 253 253 253 253 252 251 249 247 245 245 245 246 246 246 246 246 247 248 249 249 251 253 255 257 259 262 266 269 271 273 275 276 276 277 277 276 276 275 274 273 272 271 271 270 269 268 268 267 267 267 267 268 268 268 268 268 267 267 267 266 266 265 264 263 262 261 260 259 259 259 259 259 258 258 258 258 258 258 258 259 258 256
258 256 255 254 254 254 255 255 255 254 254 252 251 250 249 249 250 251 252 253 254 254 255 256 258 260 262 264 266 269 271 273 274 274 275 275 276 276 276 276 276 275 275 274 273 273 272 271 271 270 269 268 268 267 267 267 267 267 267 266 266 266 265 265 265 265 264 264 263 262 261 260 259 258 258 257 258 258 258 258 259 260 259 259 258 257
261 259 258 257 256 255 255 255 255 255 256 256 256 256 256 256 257 257 258 259 260 261 262 264 265 266 268 269 270 272 273 274 275 276 276 277 277 277 277 276 276 276 276 275 275 275 275 274 273 272 271 270 268 267 267 266 265 265 265 264 264 263 263 263 263 263 263 263 262 262 261 260 260 259 258 257 257 256 256 257 256 257 257 257 258 258
263 262 261 260 258 257 256 257 258 259 260 260 261 261 262 262 263 263 264 265 266 266 267 268 269 270 271 271 272 273 274 275 276 277 278 278 278 278 278 278 278 279 280 280 279 278 277 276 275 274 272 271 269 268 267 266 265 264 263 262 261 261 261 261 260 260 261 261 261 261 260 260 259 258 256 254 254 255 255 255 254 254 255 255 254 255
Height
5719 5720 5722 5723 5724 5725 5726 5727 5728 5729 5730 5732 5733 5735 5736 5738 5739 5740 5741 5743 5745 5747 5748 5750 5751 5751 5753 5754 5756 5756 5759 5761 5763 5764 5764 5765 5765 5765 5766 5767 5768 5769 5771 5771 5771 5771 5771 5771 5771 5772 5773 5774 5774 5775 5776 5776 5776 5776 5777 5777 5777 5777 5777 5777 5777 5778 5779 5781 5782 5782 5782 5782 5783 5783 5783 5782 5782 5782 5782 5782 5782 5783 5783 5783 5783 5783
5717 5718 5719 5720 5721 5722 5723 5724 5725 5726 5728 5729 5731 5733 5734 5736 5737 5738 5739 5741 5743 5744 5746 5747 5748 5749 5751 5752 5754 5756 5758 5760 5761 5761 5762 5762 5763 5763 5764 5765 5766 5768 5769 5770 5770 5770 5770 5770 5770 5771 5771 5772 5773 5773 5774 5775 5775 5776 5776 5776 5776 5776 5776 5776 5777 5778 5778 5779 5780 5781 5781 5781 5781 5781 5781 5781 5781 5781 5781 5781 5781 5781 5781 5781 5781 5781
5715 5715 5716 5717 5718 5720 5721 5722 5723 5724 5726 5727 5729 5731 5732 5734 5735 5736 5738 5740 5740 5742 5744 5746 5747 5748 5749 5751 5753 5754 5756 5757 5758 5758 5759 5760 5761 5762 5763 5764 5765 5767 5768 5768 5769 5769 5769 5769 5769 5769 5770 5770 5771 5772 5773 5774 5774 5774 5775 5775 5775 5776 5776 5776 5776 5777 5777 5778 5779 5779 5779 5780 5780 5780 5780 5780 5780 5780 5779 5779 5779 5779 5779 5779 5779 5779
5712 5713 5714 5715 5717 5718 5720 5721 5722 5723 5724 5726 5728 5729 5730 5732 5733 5735 5737 5738 5739 5741 5743 5744 5745 5746 5748 5750 5751 5752 5753 5754 5756 5756 5757 5758 5759 5760 5761 5762 5764 5765 5766 5767 5767 5768 5768 5767 5767 5768 5768 5769 5770 5770 5771 5772 5773 5773 5774 5774 5775 5775 5775 5775 5776 5776 5776 5777 5777 5777 5777 5778 5778 5779 5779 5779 5778 5778 5778 5778 5777 5777 5777 5777 5777 5777
5710 5711 5712 5714 5715 5717 5718 5719 5720 5722 5723 5725 5726 5728 5729 5730 5732 5733 5735 5737 5738 5739 5741 5742 5743 5745 5747 5749 5750 5750 5752 5753 5754 5755 5756 5757 5757 5758 5759 5761 5762 5763 5765 5766 5766 5766 5766 5766 5765 5766 5767 5767 5768 5769 5770 5771 5772 5772 5773 5773 5774 5774 5774 5775 5775 5775 5775 5775 5775 5775 5775 5776 5777 5777 5777 5778 5777 5777 5776 5776 5776 5776 5776 5776 5776 5776
5708 5710 5711 5712 5714 5715 5716 5717 5719 5720 5722 5723 5725 5726 5727 5729 5730 5732 5734 5736 5736 5738 5739 5741 5742 5743 5745 5747 5748 5749 5750 5751 5752 5753 5754 5755 5755 5756 5758 5759 5760 5762 5763 5764 5765 5765 5765 5765 5764 5764 5765 5766 5766 5767 5768 5769 5770 5771 5771 5772 5773 5773 5773 5773 5773 5773 5774 5774 5774 5773 5773 5775 5776 5776 5776 5776 5776 5775 5775 5774 5774 5774 5774 5774 5774 5774
5707 5709 5710 5711 5712 5713 5714 5716 5717 5719 5720 5722 5724 5725 5725 5727 5728 5730 5732 5734 5735 5736 5737 5739 5740 5741 5742 5744 5746 5746 5747 5749 5750 5751 5752 5753 5754 5755 5756 5757 5758 5760 5761 5763 5764 5764 5764 5764 5764 5764 5764 5765 5765 5765 5766 5767 5768 5769 5770 5770 5771 5771 5772 5772 5772 5772 5773 5773 5772 5772 5772 5773 5774 5775 5775 5775 5774 5774 5774 5773 5773 5773 5772 5772 5772 5772
5706 5707 5708 5709 5711 5712 5713 5715 5716 5717 5719 5721 5722 5722 5723 5724 5726 5728 5730 5732 5734 5735 5735 5737 5739 5740 5741 5742 5743 5744 5745 5746 5748 5749 5750 5751 5753 5754 5755 5756 5757 5758 5759 5761 5762 5763 5763 5764 5764 5763 5763 5764 5764 5764 5765 5765 5766 5767 5768 5769 5769 5770 5771 5772 5772 5772 5772 5772 5772 5771 5770 5771 5771 5772 5773 5773 5772 5772 5772 5772 5771 5771 5770 5770 5770 5770
5704 5705 5707 5708 5709 5711 5712 5713 5714 5716 5717 5719 5720 5721 5721 5723 5724 5727 5728 5730 5731 5733 5734 5735 5736 5738 5739 5740 5741 5742 5743 5744 5745 5746 5748 5749 5751 5752 5753 5754 5755 5756 5757 5759 5760 5761 5761 5762 5763 5762 5762 5763 5763 5763 5763 5763 5764 5765 5767 5768 5768 5769 5770 5771 5771 5771 5770 5770 5770 5769 5769 5769 5769 5770 5771 5771 5771 5771 5770 5770 5769 5769 5769 5769 5768 5768
5702 5703 5705 5706 5708 5709 5710 5711 5712 5714 5716 5717 5718 5719 5720 5721 5722 5724 5726 5727 5729 5730 5732 5733 5734 5736 5737 5738 5739 5740 5741 5742 5743 5745 5746 5748 5749 5750 5751 5752 5753 5754 5755 5757 5758 5759 5760 5760 5761 5761 5761 5761 5761 5761 5761 5762 5763 5765 5766 5767 5767 5768 5768 5768 5768 5767 5767 5767 5767 5767 5767 5767 5767 5768 5769 5769 5769 5769 5768 5768 5767 5767 5767 5767 5767 5766
5700 5701 5703 5704 5706 5707 5708 5709 5710 5711 5713 5715 5716 5717 5718 5719 5720 5722 5724 5725 5726 5728 5729 5731 5732 5734 5735 5736 5737 5737 5739 5740 5741 5743 5745 5746 5747 5748 5749 5750 5751 5752 5753 5755 5756 5756 5757 5758 5758 5759 5759 5759 5759 5759 5760 5761 5762 5764 5765 5765 5765 5765 5765 5765 5764 5764 5764 5764 5764 5764 5764 5764 5764 5765 5766 5766 5766 5766 5766 5766 5766 5765 5765 5765 5765 5764
5698 5700 5701 5702 5704 5705 5706 5707 5708 5710 5711 5713 5714 5715 5716 5717 5717 5719 5721 5723 5724 5725 5727 5728 5730 5731 5733 5734 5734 5735 5737 5738 5740 5741 5743 5744 5745 5746 5747 5748 5749 5749 5750 5752 5753 5754 5755 5756 5756 5756 5757 5757 5758 5758 5759 5759 5760 5761 5762 5763 5762 5762 5761 5761 5761 5761 5761 5761 5761 5761 5761 5762 5762 5762 5763 5763 5763 5763 5763 5763 5763 5763 5763 5762 5762 5762
5697 5698 5699 5700 5702 5703 5704 5705 5706 5707 5709 5711 5713 5713 5714 5715 5715 5716 5718 5720 5721 5723 5725 5726 5728 5729 5731 5732 5733 5734 5735 5736 5738 5739 5740 5741 5743 5744 5745 5746 5746 5746 5747 5749 5750 5751 5752 5752 5753 5753 5754 5754 5755 5756 5756 5757 5758 5759 5760 5759 5758 5758 5759 5759 5759 5759 5759 5759 5759 5759 5760 5759 5759 5760 5760 5760 5760 5759 5759 5759 5760 5760 5761 5760 5760 5760
5695 5696 5696 5698 5700 5701 5702 5703 5705 5706 5707 5709 5710 5711 5712 5712 5713 5714 5715 5717 5719 5721 5723 5724 5725 5727 5728 5729 5731 5733 5734 5734 5735 5737 5738 5740 5741 5742 5742 5743 5743 5744 5745 5746 5747 5747 5748 5749 5749 5750 5751 5751 5752 5753 5754 5755 5756 5756 5756 5755 5755 5756 5757 5757 5757 5757 5756 5756 5756 5757 5757 5756 5756 5756 5757 5757 5756 5755 5755 5756 5756 5757 5758 5758 5758 5758
5693 5693 5694 5696 5697 5699 5700 5702 5703 5704 5705 5706 5707 5708 5709 5710 5711 5712 5713 5715 5716 5718 5720 5721 5722 5723 5724 5726 5728 5731 5732 5732 5733 5735 5736 5737 5739 5740 5740 5741 5741 5741 5742 5743 5743 5744 5744 5745 5746 5746 5747 5747 5748 5749 5750 5751 5753 5753 5753 5752 5753 5754 5754 5754 5753 5752 5752 5752 5752 5753 5753 5753 5753 5753 5753 5753 5753 5751 5752 5753 5753 5754 5755 5755 5756 5756
5690 5691 5692 5694 5695 5697 5699 5699 5701 5701 5702 5703 5704 5705 5706 5707 5709 5710 5711 5712 5714 5715 5716 5717 5719 5719 5721 5723 5725 5726 5729 5730 5731 5732 5733 5734 5735 5736 5737 5738 5739 5739 5739 5738 5737 5738 5740 5741 5742 5743 5743 5743 5745 5746 5747 5748 5749 5749 5749 5749 5750 5750 5750 5750 5749 5749 5750 5750 5750 5750 5750 5750 5750 5750 5750 5750 5750 5749 5749 5750 5751 5752 5753 5753 5754 5754
5687 5689 5690 5691 5693 5694 5696 5697 5698 5699 5700 5700 5701 5703 5704 5706 5707 5708 5709 5709 5710 5712 5713 5714 5716 5717 5718 5720 5721 5723 5725 5727 5728 5728 5730 5731 5732 5733 5734 5735 5735 5735 5734 5733 5732 5732 5734 5736 5737 5738 5740 5740 5741 5743 5744 5744 5745 5746 5746 5745 5746 5748 5748 5747 5747 5747 5747 5747 5747 5747 5747 5748 5748 5748 5748 5748 5748 5748 5748 5748 5748 5749 5750 5751 5752 5752
5684 5686 5687 5688 5690 5692 5693 5694 5695 5696 5697 5698 5699 5701 5703 5703 5704 5705 5706 5707 5708 5709 5710 5711 5713 5714 5716 5717 5718 5720 5721 5723 5724 5725 5726 5727 5728 5729 5730 5731 5732 5732 5731 5732 5733 5731 5730 5732 5732 5733 5735 5737 5738 5740 5740 5741 5742 5742 5743 5743 5744 5745 5744 5744 5745 5745 5745 5745 5744 5744 5745 5746 5746 5746 5746 5746 5746 5746 5746 5746 5746 5747 5748 5749 5749 5750
5682 5683 5684 5685 5688 5689 5690 5691 5693 5693 5694 5695 5697 5699 5700 5701 5702 5703 5704 5705 5706 5707 5708 5709 5711 5712 5713 5714 5715 5717 5718 5719 5721 5721 5722 5723 5725 5726 5727 5728 5729 5729 5729 5730 5732 5731 5729 5729 5729 5729 5731 5733 5734 5737 5738 5738 5739 5739 5740 5740 5742 5741 5741 5742 5743 5742 5743 5743 5742 5743 5743 5743 5744 5744 5744 5744 5744 5744 5745 5745 5745 5745 5746 5746 5747 5748
5679 5680 5682 5683 5685 5686 5687 5688 5690 5691 5691 5693 5695 5696 5697 5698 5699 5700 5702 5703 5704 5705 5706 5707 5708 5710 5711 5712 5713 5715 5715 5716 5716 5718 5719 5720 5721 5722 5724 5725 5726 5726 5727 5727 5728 5728 5728 5727 5727 5728 5729 5729 5731 5734 5735 5736 5736 5736 5737 5738 5739 5738 5738 5740 5741 5740 5740 5741 5741 5742 5742 5742 5742 5742 5742 5742 5742 5742 5743 5743 5743 5744 5744 5744 5745 5745
5676 5678 5679 5680 5682 5683 5684 5686 5687 5688 5689 5691 5692 5693 5694 5696 5697 5698 5699 5700 5701 5703 5704 5705 5706 5708 5709 5710 5711 5712 5712 5712 5713 5714 5715 5716 5718 5719 5721 5722 5722 5723 5724 5724 5725 5725 5725 5725 5725 5725 5726 5727 5729 5731 5732 5733 5733 5734 5735 5736 5737 5736 5735 5736 5738 5739 5739 5739 5739 5740 5740 5740 5740 5740 5740 5740 5740 5740 5740 5741 5741 5742 5742 5742 5742 5742
5674 5675 5677 5678 5679 5680 5681 5683 5684 5686 5686 5688 5690 5691 5691 5693 5694 5695 5696 5697 5699 5701 5702 5703 5704 5706 5707 5707 5708 5709 5709 5710 5710 5711 5713 5714 5715 5716 5717 5718 5719 5720 5720 5721 5722 5722 5722 5722 5722 5722 5723 5724 5726 5728 5729 5730 5730 5731 5732 5733 5734 5733 5733 5734 5735 5736 5737 5737 5737 5737 5737 5738 5738 5738 5738 5738 5738 5738 5738 5739 5739 5739 5740 5739 5739 5740
5671 5673 5674 5675 5676 5677 5678 5680 5681 5683 5684 5685 5686 5688 5689 5690 5691 5692 5694 5695 5697 5698 5700 5701 5702 5703 5704 5705 5706 5707 5707 5708 5708 5709 5710 5712 5713 5713 5714 5715 5716 5717 5717 5718 5719 5719 5719 5719 5719 5719 5720 5721 5723 5725 5726 5727 5727 5728 5729 5729 5730 5730 5731 5731 5732 5733 5734 5734 5735 5735 5735 5735 5735 5736 5735 5735 5736 5736 5736 5737 5737 5737 5737 5737 5737 5737
5669 5670 5671 5672 5672 5674 5676 5677 5678 5680 5681 5682 5683 5685 5686 5687 5689 5690 5691 5693 5694 5695 5697 5699 5699 5700 5702 5702 5703 5704 5705 5705 5706 5707 5708 5709 5710 5711 5711 5712 5713 5713 5714 5715 5716 5716 5716 5717 5717 5717 5717 5718 5720 5722 5723 5724 5724 5725 5725 5726 5726 5727 5728 5729 5729 5730 5731 5731 5732 5732 5732 5733 5733 5734 5733 5733 5734 5734 5734 5734 5734 5734 5735 5735 5735 5735
5665 5666 5667 5668 5669 5671 5673 5674 5675 5676 5678 5680 5681 5682 5683 5685 5686 5687 5689 5690 5691 5692 5694 5696 5697 5698 5699 5699 5700 5701 5702 5702 5703 5704 5705 5706 5707 5707 5708 5709 5709 5710 5711 5712 5713 5713 5714 5714 5714 5714 5714 5715 5717 5719 5721 5721 5722 5722 5722 5722 5723 5723 5724 5725 5726 5727 5728 5728 5728 5729 5729 5730 5731 5731 5731 5731 5731 5731 5731 5731 5731 5731 5732 5732 5732 5732
5662 5662 5663 5665 5667 5668 5670 5672 5673 5675 5676 5677 5678 5680 5681 5682 5683 5684 5686 5687 5688 5690 5691 5693 5694 5695 5696 5696 5697 5698 5699 5700 5700 5701 5702 5703 5704 5704 5705 5706 5706 5707 5708 5709 5710 5710 5711 5711 5712 5712 5713 5713 5715 5716 5717 5718 5719 5719 5719 5719 5719 5720 5721 5722 5722 5723 5724 5724 5725 5725 5726 5727 5727 5728 5728 5728 5728 5728 5728 5728 5728 5728 5728 5728 5729 5729
5657 5658 5660 5661 5663 5665 5667 5669 5671 5672 5673 5674 5676 5677 5678 5679 5680 5681 5682 5683 5685 5686 5688 5689 5690 5692 5693 5694 5694 5695 5696 5697 5698 5698 5699 5700 5701 5702 5703 5704 5704 5705 5705 5706 5707 5707 5708 5709 5709 5710 5710 5710 5711 5712 5713 5714 5715 5715 5715 5715 5716 5717 5717 5718 5719 5719 5720 5720 5721 5722 5722 5723 5724 5724 5725 5725 5725 5724 5724 5724 5725 5725 5726 5726 5726 5726
5653 5654 5656 5657 5660 5662 5663 5665 5666 5668 5669 5670 5672 5673 5674 5675 5676 5677 5678 5680 5681 5683 5684 5686 5687 5688 5690 5691 5691 5692 5693 5694 5694 5695 5695 5696 5698 5699 5699 5700 5701 5701 5702 5702 5703 5704 5705 5706 5706 5707 5707 5707 5707 5708 5709 5710 5711 5711 5711 5712 5712 5713 5714 5714 5715 5715 5716 5716 5717 5718 5718 5719 5720 5720 5721 5721 5721 5721 5721 5721 5721 5722 5723 5723 5723 5723
5649 5650 5652 5654 5656 5657 5659 5660 5661 5662 5664 5665 5667 5669 5670 5671 5672 5673 5674 5676 5677 5679 5681 5682 5683 5685 5686 5687 5688 5689 5689 5690 5691 5691 5692 5693 5693 5694 5696 5696 5697 5697 5698 5699 5699 5700 5701 5702 5702 5702 5703 5703 5704 5704 5705 5706 5707 5707 5707 5708 5709 5709 5710 5710 5711 5711 5711 5712 5712 5713 5714 5714 5715 5716 5716 5716 5716 5716 5717 5718 5718 5718 5719 5719 5718 5718
5647 5648 5650 5652 5652 5653 5655 5655 5656 5657 5658 5660 5662 5663 5665 5667 5668 5669 5670 5671 5673 5675 5676 5678 5680 5681 5682 5683 5684 5685 5685 5686 5687 5687 5688 5689 5689 5690 5691 5692 5693 5693 5694 5695 5695 5696 5697 5697 5697 5698 5698 5699 5699 5700 5701 5702 5702 5703 5703 5703 5704 5705 5705 5706 5706 5706 5706 5707 5707 5708 5709 5709 5710 5711 5711 5711 5711 5712 5713 5714 5713 5714 5715 5714 5714 5714
5643 5644 5646 5648 5649 5650 5651 5652 5653 5654 5654 5655 5657 5659 5660 5662 5663 5664 5665 5667 5668 5670 5672 5674 5675 5676 5678 5679 5680 5681 5682 5682 5682 5683 5684 5684 5685 5686 5687 5688 5688 5689 5690 5690 5690 5691 5691 5692 5693 5693 5694 5694 5695 5695 5696 5697 5698 5698 5698 5698 5698 5699 5700 5701 5701 5701 5701 5702 5702 5703 5704 5704 5704 5705 5706 5706 5706 5707 5708 5709 5708 5709 5709 5710 5709 5709
5640 5640 5643 5644 5645 5646 5647 5648 5649 5650 5651 5652 5654 5655 5656 5657 5659 5661 5662 5663 5665 5666 5668 5670 5671 5672 5673 5674 5675 5677 5677 5678 5678 5679 5679 5680 5680 5681 5682 5683 5683 5684 5685 5685 5686 5686 5686 5687 5687 5688 5688 5689 5689 5690 5690 5691 5692 5692 5693 5693 5693 5693 5694 5694 5695 5695 5696 5696 5697 5697 5697 5698 5699 5699 5700 5700 5701 5702 5703 5703 5704 5704 5705 5705 5705 5704
5636 5637 5639 5640 5641 5642 5643 5644 5645 5646 5647 5649 5650 5652 5653 5654 5655 5657 5658 5660 5661 5662 5664 5666 5667 5668 5669 5670 5671 5672 5673 5673 5674 5674 5675 5675 5676 5676 5677 5677 5678 5679 5679 5680 5680 5681 5681 5682 5682 5683 5683 5683 5684 5684 5684 5685 5685 5686 5687 5687 5687 5687 5687 5687 5688 5689 5689 5690 5690 5691 5691 5691 5692 5693 5693 5694 5694 5696 5697 5698 5698 5698 5699 5701 5701 5700
5633 5634 5635 5636 5637 5637 5638 5639 5640 5641 5643 5645 5646 5647 5649 5650 5652 5653 5654 5655 5657 5659 5660 5662 5663 5664 5665 5666 5666 5667 5667 5668 5668 5669 5670 5671 5671 5672 5672 5672 5672 5673 5674 5674 5675 5676 5676 5676 5677 5677 5677 5678 5678 5678 5678 5679 5679 5679 5680 5680 5681 5681 5680 5680 5681 5681 5682 5683 5683 5684 5684 5684 5685 5686 5686 5687 5688 5689 5691 5691 5692 5692 5694 5695 5695 5694
5629 5630 5631 5632 5632 5633 5633 5634 5634 5637 5639 5640 5641 5643 5644 5645 5646 5648 5649 5651 5652 5654 5656 5657 5658 5659 5660 5661 5661 5662 5662 5662 5663 5664 5664 5665 5666 5666 5666 5666 5666 5667 5667 5668 5669 5670 5670 5670 5670 5670 5671 5671 5670 5670 5670 5671 5671 5672 5673 5674 5674 5674 5674 5674 5674 5675 5675 5676 5677 5677 5678 5678 5679 5679 5680 5681 5681 5682 5683 5684 5685 5685 5687 5688 5688 5687
5625 5626 5627 5628 5628 5629 5629 5629 5631 5634 5636 5636 5637 5639 5640 5641 5642 5643 5644 5646 5647 5649 5650 5652 5653 5654 5655 5655 5656 5656 5657 5657 5658 5658 5658 5659 5660 5660 5660 5659 5660 5660 5660 5661 5662 5662 5663 5663 5663 5663 5664 5663 5663 5663 5663 5664 5664 5665 5667 5667 5667 5667 5667 5667 5668 5669 5669 5670 5670 5670 5671 5672 5672 5673 5674 5675 5675 5675 5675 5676 5676 5678 5679 5680 5680 5681
5620 5622 5623 5624 5624 5625 5625 5625 5627 5629 5631 5632 5633 5635 5636 5637 5638 5639 5640 5641 5642 5643 5644 5646 5647 5648 5649 5650 5650 5651 5651 5651 5652 5652 5652 5653 5653 5653 5653 5652 5652 5652 5652 5653 5653 5653 5654 5654 5654 5655 5656 5656 5656 5656 5657 5658 5658 5658 5659 5660 5660 5660 5661 5662 5661 5662 5663 5663 5662 5663 5664 5665 5666 5667 5667 5668 5668 5668 5668 5669 5669 5671 5672 5673 5674 5674
5616 5617 5618 5618 5619 5619 5620 5621 5622 5624 5626 5628 5629 5630 5632 5632 5633 5634 5635 5635 5637 5638 5639 5640 5641 5642 5643 5643 5644 5644 5645 5645 5645 5645 5646 5646 5646 5645 5645 5645 5645 5644 5644 5644 5644 5644 5644 5645 5645 5645 5646 5647 5647 5647 5648 5649 5650 5650 5651 5653 5653 5654 5654 5655 5655 5655 5657 5657 5656 5657 5658 5659 5659 5659 5660 5660 5660 5661 5661 5662 5663 5664 5665 5666 5667 5667
5611 5612 5613 5613 5613 5614 5615 5616 5617 5618 5621 5622 5624 5625 5626 5627 5627 5628 5629 5630 5632 5633 5633 5634 5635 5635 5636 5636 5636 5637 5638 5638 5638 5638 5638 5638 5638 5638 5637 5637 5637 5637 5637 5637 5637 5636 5636 5636 5636 5636 5636 5636 5636 5637 5638 5639 5640 5641 5642 5644 5645 5645 5646 5647 5648 5649 5650 5651 5651 5651 5652 5652 5652 5652 5653 5653 5653 5654 5654 5654 5655 5656 5657 5658 5659 5660
5607 5607 5608 5608 5608 5610 5610 5611 5612 5613 5615 5617 5618 5620 5620 5621 5621 5622 5623 5625 5627 5627 5627 5628 5628 5628 5628 5629 5629 5630 5630 5630 5631 5630 5630 5630 5630 5630 5630 5630 5629 5629 5629 5629 5629 5628 5628 5628 5627 5627 5627 5627 5627 5627 5628 5629 5629 5631 5632 5633 5635 5635 5636 5637 5639 5640 5642 5643 5644 5645 5645 5645 5645 5646 5646 5647 5647 5647 5648 5648 5649 5650 5651 5652 5652 5653
5602 5602 5602 5603 5604 5605 5605 5606 5607 5608 5610 5611 5613 5613 5614 5614 5614 5615 5617 5620 5621 5620 5620 5621 5621 5621 5621 5621 5621 5622 5622 5623 5623 5623 5623 5622 5622 5622 5622 5622 5621 5621 5621 5621 5621 5621 5621 5620 5620 5619 5619 5619 5619 5619 5620 5620 5621 5621 5622 5623 5624 5625 5626 5627 5629 5631 5632 5634 5635 5637 5638 5638 5638 5639 5639 5639 5640 5641 5642 5642 5643 5644 5645 5646 5646 5647
5596 5597 5597 5598 5599 5599 5600 5600 5601 5602 5604 5606 5606 5607 5607 5607 5607 5609 5611 5613 5613 5613 5613 5613 5613 5613 5613 5613 5614 5614 5614 5615 5615 5615 5615 5615 5615 5614 5614 5614 5614 5613 5613 5613 5613 5613 5613 5613 5612 5612 5611 5611 5611 5611 5611 5612 5613 5613 5613 5614 5615 5615 5616 5617 5619 5621 5622 5624 5626 5628 5630 5631 5632 5632 5633 5633 5633 5634 5635 5636 5637 5638 5640 5640 5639 5640
5590 5591 5592 5593 5594 5594 5595 5595 5596 5597 5598 5599 5600 5601 5601 5601 5601 5603 5604 5604 5605 5605 5605 5605 5605 5605 5606 5606 5606 5606 5606 5607 5607 5607 5607 5607 5607 5606 5606 5606 5605 5605 5605 5605 5604 5604 5604 5604 5604 5603 5603 5602 5602 5602 5602 5603 5604 5605 5606 5607 5607 5606 5607 5608 5609 5611 5613 5615 5616 5618 5620 5622 5623 5624 5625 5626 5627 5628 5628 5629 5630 5631 5632 5632 5632 5632
5584 5585 5586 5587 5588 5589 5589 5589 5590 5591 5592 5593 5593 5594 5594 5594 5595 5596 5596 5597 5597 5597 5597 5598 5598 5598 5599 5599 5599 5599 5600 5600 5600 5600 5600 5599 5599 5599 5598 5598 5598 5597 5597 5596 5596 5595 5594 5594 5594 5594 5594 5593 5592 5593 5592 5593 5594 5595 5596 5598 5598 5597 5598 5599 5600 5602 5604 5606 5607 5609 5611 5613 5614 5615 5616 5618 5619 5620 5621 5622 5622 5623 5624 5624 5625 5625
5579 5580 5581 5581 5582 5583 5584 5584 5585 5586 5586 5587 5588 5588 5588 5588 5589 5590 5590 5590 5590 5590 5590 5591 5591 5591 5591 5591 5592 5592 5593 5593 5593 5593 5593 5593 5593 5593 5592 5591 5591 5590 5589 5589 5588 5587 5586 5585 5585 5585 5585 5584 5583 5583 5582 5582 5583 5584 5586 5587 5587 5587 5588 5590 5591 5592 5594 5596 5598 5599 5601 5603 5604 5606 5608 5609 5610 5611 5612 5613 5614 5614 5615 5616 5618 5619
5574 5575 5576 5576 5577 5578 5579 5579 5580 5581 5582 5582 5583 5583 5583 5583 5584 5584 5584 5584 5584 5584 5584 5584 5584 5585 5585 5585 5585 5585 5585 5586 5586 5587 5587 5587 5587 5586 5585 5584 5583 5582 5582 5581 5580 5579 5578 5577 5577 5577 5577 5576 5575 5573 5572 5572 5572 5573 5575 5576 5576 5576 5577 5578 5581 5583 5585 5586 5588 5589 5591 5593 5595 5597 5598 5600 5601 5601 5602 5604 5605 5606 5607 5609 5611 5612
5570 5570 5571 5572 5572 5573 5574 5574 5576 5577 5577 5578 5578 5579 5579 5579 5579 5579 5579 5579 5579 5579 5579 5579 5579 5579 5579 5579 5579 5579 5579 5579 5580 5580 5579 5579 5578 5577 5576 5576 5575 5574 5573 5572 5571 5570 5569 5569 5569 5568 5567 5567 5566 5563 5562 5562 5562 5562 5563 5564 5564 5565 5565 5567 5569 5572 5574 5576 5578 5579 5581 5582 5585 5586 5588 5590 5591 5592 5593 5595 5596 5597 5599 5601 5604 5605
5565 5566 5567 5567 5568 5568 5569 5570 5571 5572 5572 5573 5573 5574 5574 5574 5574 5574 5574 5574 5574 5574 5574 5574 5573 5573 5573 5573 5573 5573 5573 5572 5572 5572 5572 5570 5569 5568 5567 5567 5566 5565 5564 5563 5561 5560 5560 5559 5559 5558 5558 5558 5556 5554 5553 5553 5553 5552 5552 5553 5553 5553 5554 5556 5558 5560 5562 5564 5566 5568 5570 5572 5574 5576 5578 5579 5581 5582 5583 5584 5586 5588 5590 5593 5595 5596
5562 5562 5563 5563 5564 5564 5565 5565 5566 5566 5567 5567 5568 5568 5568 5569 5569 5569 5569 5569 5569 5569 5569 5568 5568 5568 5567 5567 5567 5566 5565 5564 5564 5564 5563 5562 5561 5560 5559 5558 5557 5556 5555 5553 5552 5551 5550 5550 5549 5549 5548 5548 5547 5545 5544 5544 5543 5542 5542 5542 5542 5541 5542 5544 5546 5547 5550 5552 5554 5556 5558 5560 5562 5565 5567 5569 5571 5572 5573 5574 5576 5578 5580 5582 5584 5586
5558 5558 5558 5559 5560 5560 5560 5561 5561 5562 5562 5562 5562 5563 5563 5563 5563 5563 5563 5563 5563 5563 5563 5562 5562 5562 5561 5560 5560 5559 5558 5557 5556 5556 5555 5554 5552 5551 5550 5549 5548 5547 5545 5544 5543 5542 5541 5540 5539 5538 5538 5537 5536 5535 5534 5534 5533 5532 5531 5530 5530 5530 5531 5533 5534 5536 5539 5541 5543 5545 5547 5548 5551 5555 5557 5558 5560 5562 5563 5565 5567 5569 5571 5572 5574 5576
5554 5554 5555 5555 5555 5556 5557 5557 5558 5558 5558 5558 5558 5559 5559 5559 5559 5558 5558 5558 5557 5557 5557 5556 5556 5555 5555 5554 5553 5552 5551 5550 5549 5548 5548 5546 5544 5543 5542 5541 5540 5539 5537 5535 5534 5532 5531 5529 5528 5527 5527 5526 5524 5523 5523 5522 5522 5520 5519 5518 5518 5518 5519 5521 5523 5525 5528 5529 5531 5534 5535 5537 5540 5545 5547 5548 5549 5551 5554 5555 5558 5560 5562 5564 5566 5568